FENGYUN 1C DEB, 29789

Orbit data source: Space-Track

FENGYUN 1C DEB, 29789 is space debris in SSO originally from a launch on Mon, 10 May 1999 UTC launched from the Taiyaun Space Center, China (TSC). Fengyun 1C debris stems from the Chinese weather satellite Fengyun-1C, which was intentionally destroyed by a Chinese anti-satellite missile in 2007. This event dramatically increased the amount of space debris, with thousands of trackable fragments posing hazards to satellites and human spaceflight. The Fengyun 1C debris cloud has become a focal point in discussions about space sustainability and the need for international regulations to prevent the creation of new debris.

Loading next visibility...
Identifier
29789, 1999-025CF
Orbit
SSO
Country
Flag of CNCN / PRC
Related business
Manufacturer
Unknown
Mission
Spacecraft
Bus & Motor
Unknown
Mass
Unknown
Launch date (UTC)
1999-05-10 (27 years ago)
Launch vehicle
Unknown
Launch site
Taiyaun Space Center, China (TSC)
Object type
Payload
Rocket body
Debris
Shape & HBR
Unknown shape, 0.1 m
Radar Cross Section
Medium (>0.1 m² and <1 m²)

Expand to show TLE details & history
Last TLE update: 14 hours ago

TLE from 14 hours ago
0 FENGYUN 1C DEB
1 29789U 99025CF  26169.76646779  .00001163  00000-0  13238-2 0  9996
2 29789  99.4611 349.7577 0297189 163.6441 320.3623 13.54773889955339
Epoch: 2026-06-18T18:23Z
TLE epoch observation values (Epoch: 2026-06-18T18:23:42.817Z)
Latitude
57.0917°
Longitude
1.66615°
Altitude
896.86 km
Speed
7.492 km/s
True Right ascension
12h 18m 23s
True Declination
56° 56' 15"
Sunlit
Object was in daylight at epoch
Visualization orbit readout
Latitude
Unknown
Longitude
Unknown
Altitude
Unknown
Speed
Unknown
Apparent Right ascension
Unknown
Apparent Declination
Unknown
Sunlit
N/A
Visualization observer readout
Local Sidereal Time
19:14:23
Azimuth
Unknown
Elevation
Unknown
Doppler factor
Unknown
Orbital elements
Apogee altitude
1,272.841 km
Perigee altitude
831.209 km
Semi-major axis
7,430.162 km
Eccentricity
0.02972
Inclination
99.4611°
RAAN
349.7577°
Arg. of periapsis
163.6441°
True anomaly
318.12647°
Mean anomaly
320.3623°
Eccentric anomaly
319.25082°
Mean motion
3.3888 °/min
Orbital period
106.23 mins
BSTAR
0.0013238
Loading maneuver chart data...
Computing Atmospheric mass density...

Documentation

Showing up to 5 results
|